Regional Weather Roundup
Issued by NWS

Home | Current Version | Previous Version | Text Only | Print | Product List | Glossary Off
Versions: 1 2 3 4 5 6 7 8 9 10 11 12 13 14 15 16 17 18 19 20 21 22 23 24 25 26 27 28 29 30 31 32 33 34 35 36 37 38 39 40 41 42 43 44 45 46 47 48 49 50

000
ASUS43 KLSX 011807
RWRMO

WEATHER SUMMARY FOR MISSOURI
NATIONAL WEATHER SERVICE SPRINGFIELD MO
100 PM CDT SAT AUG 01 2015

NOTE: "FAIR" INDICATES FEW OR NO CLOUDS BELOW 12,000 FEET WITH NO
       SIGNIFICANT WEATHER AND/OR OBSTRUCTIONS TO VISIBILITY.
       CURRENT SKY AND/OR WEATHER CONDITIONS ARE NOT AVAILABLE FOR
       CHILLICOTHE AND FARMINGTON.

MOZ001>031-035>038-043-044-053-054-011900-
...NORTHERN AND WESTERN MISSOURI...

CITY           SKY/WX    TMP DP  RH WIND       PRES   REMARKS
KANSAS CTY INT PTSUNNY   88  74  63 W5        30.04F HX  96
6HR MIN TEMP:  70; 6HR MAX TEMP:  88;

KANSAS C DTWN  MOSUNNY   88  72  58 VRB5      30.02F HX  94
6HR MIN TEMP:  75; 6HR MAX TEMP:  88;

LEE`S SUMMIT   MOSUNNY   88  68  51 VRB5      30.05F HX  91
6HR MIN TEMP:  72; 6HR MAX TEMP:  88;

ST JOSEPH      MOSUNNY   87  76  69 W7        30.02F HX  97
6HR MIN TEMP:  71; 6HR MAX TEMP:  88;

CHILLICOTHE      N/A     86  74  67 S6        30.02F HX  94
6HR MIN TEMP:  70; 6HR MAX TEMP:  87; 6HR PCP:  0.04;

KIRKSVILLE     CLOUDY    85  71  63 SW6       30.03F HX  90
6HR MIN TEMP:  69; 6HR MAX TEMP:  85; 6HR PCP: TRACE;


$$
MOZ066>068-077>081-088>096-101>105-011900-
...SOUTHWEST MISSOURI...

CITY           SKY/WX    TMP DP  RH WIND       PRES   REMARKS
SPRINGFIELD    SUNNY     88  61  40 VRB7      30.08F
6HR MIN TEMP:  65; 6HR MAX TEMP:  88;

JOPLIN         SUNNY     91  63  39 VRB7      30.07F HX  92
6HR MIN TEMP:  63; 6HR MAX TEMP:  91;


$$
MOZ032>034-039>042-045>050-055>058-069>072-011900-
...CENTRAL MISSOURI...

CITY           SKY/WX    TMP DP  RH WIND       PRES   REMARKS
COLUMBIA       SUNNY     87  68  52 CALM      30.04F HX  90
6HR MIN TEMP:  69; 6HR MAX TEMP:  88;

JEFFERSON CITY SUNNY     89  67  47 CALM      30.02F HX  92
6HR MIN TEMP:  68; 6HR MAX TEMP:  89;

ROLLA          MOSUNNY   88  68  51 W7        30.05F HX  91
6HR MIN TEMP:  67; 6HR MAX TEMP:  88;

SEDALIA        MOSUNNY   91  72  53 NW6       30.04F HX  98
6HR MIN TEMP:  72; 6HR MAX TEMP:  92;

WHITEMAN AFB   LGT RAIN  88  72  58 W6        30.01F HX  94
WARRENSBURG    TSTM      79  66  65 NW9G16    30.04S
OSAGE BEACH    SUNNY     90  70  51 W7        30.06F HX  95

$$
MOZ051-052-059>065-011900-
...EAST CENTRAL MISSOURI...

CITY           SKY/WX    TMP DP  RH WIND       PRES   REMARKS
ST LOUIS INTL  PTSUNNY   86  57  37 E5        30.05F
6HR MIN TEMP:  73; 6HR MAX TEMP:  88;

SPIRIT OF STL  MOSUNNY   85  63  47 VRB5      30.03F
6HR MIN TEMP:  69; 6HR MAX TEMP:  86;

ST CHARLES     PTSUNNY   83  63  50 SE5       30.03F
6HR MIN TEMP:  69; 6HR MAX TEMP:  84;


$$
MOZ072>076-082>087-097>100-106>115-011900-
...SOUTH CENTRAL AND SOUTHEAST MISSOURI...

CITY           SKY/WX    TMP DP  RH WIND       PRES   REMARKS
CAPE GIRARDEAU SUNNY     89  69  51 CALM      30.03F HX  93
6HR MIN TEMP:  67; 6HR MAX TEMP:  89;

FARMINGTON     SUNNY     84  70  61 S3        30.09F
6HR MIN TEMP:  64; 6HR MAX TEMP:  86;

POPLAR BLUFF   SUNNY     91  68  46 NE3       30.02F HX  95
6HR MIN TEMP:  70; 6HR MAX TEMP:  91;

WEST PLAINS    SUNNY     89  63  41 W8        30.10F HX  90
6HR MIN TEMP:  67; 6HR MAX TEMP:  89;


$$



USA.gov is the U.S. government's official web portal to all federal, state and local government web resources and services.